Theta_e
323 321 318 317 318 320 322 323 326 327 328 330 328 325 323 322 325 336 344 346 351 351 353 359 356 360 363 361 364 361 364 367 365 365 363 362 361 362 363 356 349 350 346 346 346 344 344 344 344 344 344 344 343 345 346 347 348 346 347 350 350 351 354 356 356 355 354 354 353 352 353 354 355 354 354 354 354 356 358 357 359 360 359 358 357 358
322 320 319 320 320 321 321 323 324 326 328 328 325 323 322 323 326 337 346 344 349 351 349 354 353 354 359 360 362 361 363 367 365 364 362 360 359 360 363 359 352 350 347 346 346 345 345 344 345 344 344 344 343 345 347 348 348 346 348 351 351 351 354 355 356 355 353 353 353 353 352 353 355 355 354 355 354 356 358 358 359 360 359 359 359 359
320 319 321 322 321 321 322 323 323 324 327 327 325 322 319 324 330 335 345 346 344 348 348 352 350 350 356 358 359 361 362 364 362 361 361 362 361 361 362 360 356 351 349 347 346 346 346 344 347 345 344 344 343 345 347 347 349 348 349 352 351 352 353 354 354 354 353 353 353 352 351 352 354 355 355 355 354 356 359 359 359 359 359 359 359 358
316 319 322 323 323 323 323 322 323 323 324 327 325 321 319 327 329 325 336 345 344 346 349 351 347 347 355 356 358 361 359 361 361 362 363 364 363 360 358 357 355 352 352 348 345 346 345 345 347 346 345 345 343 345 347 347 350 349 351 353 352 352 353 354 353 354 354 352 352 352 352 353 355 356 355 355 355 356 357 358 359 359 358 359 360 358
319 322 323 323 323 323 322 321 323 320 319 326 329 325 324 330 330 327 334 339 339 342 349 352 340 339 351 355 357 357 358 360 361 363 364 365 364 359 358 359 355 353 352 350 347 346 345 346 347 347 346 345 344 346 347 348 349 350 353 353 352 353 353 353 354 354 354 353 353 354 353 353 356 355 355 356 356 356 357 357 359 360 359 358 360 358
323 325 324 323 322 323 322 322 324 322 317 320 328 332 331 333 335 335 336 332 327 326 339 349 334 333 345 350 355 355 358 362 361 364 366 366 365 359 360 361 357 354 353 351 349 347 347 346 347 348 347 345 345 346 347 348 348 350 354 354 353 353 353 354 354 354 355 354 355 357 355 353 355 357 356 356 356 356 357 356 357 359 358 358 358 358
324 326 325 324 322 323 322 321 324 325 317 315 325 334 335 336 334 333 334 327 318 321 334 339 331 331 342 346 351 352 359 366 362 363 364 363 365 361 360 361 357 354 352 352 350 347 348 348 347 349 348 346 346 346 347 347 348 350 354 355 354 354 353 354 354 354 356 356 357 360 358 355 356 358 357 357 356 354 355 356 355 358 357 357 357 357
325 326 324 325 323 322 321 319 323 326 319 317 329 335 333 335 332 332 331 325 322 325 332 333 329 331 337 345 350 348 356 366 364 361 362 362 364 361 360 361 359 356 352 352 352 349 349 349 349 349 348 347 346 347 347 347 348 351 354 356 356 355 353 354 354 354 356 357 358 360 358 357 356 356 355 355 354 353 354 354 354 357 356 357 358 357
325 324 324 326 323 321 321 320 325 328 325 325 332 331 330 333 331 333 331 324 327 324 319 326 324 324 330 342 347 350 353 359 363 360 361 362 362 361 360 360 359 358 356 352 351 350 350 350 350 349 348 346 346 347 347 347 347 351 354 356 356 356 354 355 355 355 357 358 358 358 356 356 355 354 355 354 353 353 354 354 354 356 357 357 358 357
326 323 325 325 322 322 323 325 327 329 330 329 329 329 329 330 329 334 333 324 324 322 316 320 320 321 329 337 339 348 351 355 361 360 358 359 359 360 360 358 355 356 357 354 352 352 352 351 351 351 349 347 346 347 347 347 348 350 355 356 357 357 354 356 355 355 358 358 358 357 355 355 354 353 354 354 354 354 354 356 356 357 357 357 359 359
325 323 325 326 325 324 325 327 326 326 330 328 328 330 328 329 330 331 332 325 320 320 318 319 319 321 328 334 336 344 351 354 360 361 358 357 357 359 360 358 357 358 358 355 353 354 353 352 352 352 350 347 346 347 347 347 348 350 355 357 358 358 356 356 357 356 358 359 359 357 355 356 354 353 353 354 355 355 355 356 357 357 357 356 359 359
326 324 325 326 327 327 327 327 326 327 329 328 329 328 323 323 325 322 321 322 320 318 318 321 322 317 320 331 342 348 352 352 355 358 358 357 357 358 358 357 359 358 358 359 358 358 356 353 353 353 352 349 347 347 347 347 348 350 355 357 358 358 357 357 358 357 358 359 358 356 355 355 354 353 353 354 356 356 357 357 357 358 358 357 356 358
325 325 324 325 327 328 326 323 323 326 328 330 326 321 317 316 319 319 318 318 318 317 318 322 321 319 324 338 348 352 353 352 351 352 354 356 357 358 357 355 357 357 357 360 359 358 357 354 354 354 354 352 350 349 348 347 348 351 355 358 359 359 358 358 359 359 358 357 357 356 356 356 355 354 353 355 356 357 358 357 357 358 358 358 356 357
319 325 325 325 326 326 327 321 318 320 326 329 323 317 315 316 318 320 318 317 317 315 318 323 321 322 333 347 352 353 352 351 351 351 351 353 355 357 356 354 355 356 358 359 358 358 358 356 355 355 355 354 353 351 350 348 348 351 356 359 360 359 359 359 361 361 359 356 355 355 356 355 356 355 354 356 356 357 358 357 357 358 358 359 358 358
314 318 323 325 324 325 328 325 322 324 326 328 329 325 317 315 317 317 315 316 316 314 316 319 320 323 333 345 352 352 349 348 349 349 350 352 353 355 356 354 353 355 358 359 358 357 357 358 356 356 355 355 355 354 352 350 350 352 356 359 360 360 359 359 361 363 361 357 354 354 355 355 356 356 355 356 356 356 357 356 356 357 357 359 358 358
313 314 322 325 324 326 327 327 328 327 325 327 331 325 317 318 320 315 314 315 314 314 314 315 322 332 341 347 349 348 347 348 348 347 350 353 353 354 354 354 355 357 360 360 359 357 356 358 358 357 357 356 356 356 353 353 353 353 357 360 361 361 360 360 361 363 362 359 355 354 354 354 356 356 356 355 355 354 355 355 355 356 356 356 356 356
314 316 324 325 324 326 326 326 329 327 323 325 324 319 321 327 324 314 312 314 313 313 313 318 329 337 342 347 347 347 348 348 349 348 350 353 353 354 353 355 356 358 360 360 359 358 357 359 358 357 357 356 356 356 353 355 356 355 357 360 362 362 362 361 361 363 362 360 357 355 355 354 355 356 356 355 354 352 352 353 353 355 356 355 355 355
317 315 323 325 323 324 324 325 328 328 327 322 318 320 325 328 325 319 314 313 313 313 311 321 331 331 334 342 348 351 351 348 349 348 349 351 352 354 355 355 355 355 356 356 357 358 359 358 358 357 357 356 355 354 354 357 356 355 358 360 362 363 363 362 361 362 362 361 360 357 356 355 354 355 355 355 354 351 351 352 351 353 355 354 355 355
320 314 319 324 323 322 324 325 322 324 328 323 321 326 324 318 317 317 315 313 314 312 310 321 329 327 331 339 344 349 353 349 349 348 348 349 349 351 352 353 355 353 353 355 355 357 358 359 360 359 358 357 356 356 358 357 356 355 357 359 361 362 363 362 362 362 362 361 361 359 358 356 355 355 354 353 354 352 351 352 351 351 352 353 354 353
322 317 315 321 323 322 322 321 317 318 324 324 323 326 324 319 317 315 315 315 314 313 310 318 328 327 332 344 346 349 353 350 349 349 347 348 347 348 349 351 354 353 353 353 354 355 358 358 359 357 357 358 357 357 356 354 355 355 354 357 361 361 362 362 361 361 362 361 360 360 360 358 356 355 355 353 353 353 351 350 351 351 351 351 353 352
323 320 315 319 321 319 317 318 318 318 321 321 318 319 319 320 320 318 316 314 315 316 310 318 333 333 335 348 349 346 349 347 347 348 346 346 346 346 347 348 350 352 353 353 353 353 356 358 359 359 359 359 357 356 355 354 354 353 352 355 357 357 358 359 357 358 361 361 360 360 360 360 358 356 355 353 352 352 351 350 350 350 350 350 351 351
321 320 316 316 315 314 316 320 322 321 322 321 318 318 319 319 317 314 315 314 314 315 311 319 335 337 338 346 345 342 345 343 344 345 344 346 346 345 346 345 347 349 349 351 352 351 354 357 359 359 360 358 357 359 358 355 353 353 353 355 354 354 354 354 354 356 357 357 357 358 359 360 359 356 356 354 352 351 350 350 350 349 349 349 349 350
321 320 318 315 315 316 320 322 322 321 323 323 321 323 323 321 316 311 313 314 312 314 318 326 335 338 340 343 342 340 342 342 342 343 342 343 344 344 344 343 345 347 347 348 349 349 353 354 356 358 358 359 359 359 359 356 353 352 353 353 353 354 353 351 353 356 355 354 354 355 356 359 360 357 356 354 352 351 350 350 350 349 349 349 348 348
321 320 317 316 318 320 321 322 322 322 323 321 320 324 324 322 320 316 317 319 315 313 319 329 335 339 341 341 340 340 341 340 341 342 340 341 342 343 344 343 343 345 345 346 346 347 350 350 352 354 355 357 358 358 357 356 355 354 354 353 354 355 356 354 355 356 354 353 354 354 353 355 358 358 356 354 351 350 350 350 350 350 349 348 347 347
318 319 318 316 317 316 316 317 319 320 320 320 321 323 324 323 323 322 320 322 318 314 319 331 337 338 340 341 341 339 339 339 339 339 339 340 340 341 342 342 341 342 342 344 344 345 346 346 348 351 352 353 355 355 355 355 356 356 355 356 356 357 356 354 354 355 354 353 354 354 351 351 353 356 356 354 351 350 349 350 350 350 350 347 346 346
318 322 320 317 317 316 315 315 315 316 317 320 321 321 324 323 322 320 317 317 316 315 321 332 337 339 341 342 341 339 339 338 338 338 337 338 340 339 340 340 340 340 340 341 342 342 343 343 344 347 349 350 351 352 352 353 354 353 353 355 356 356 355 352 352 354 353 353 353 353 352 350 351 353 355 354 352 349 348 348 348 349 350 348 346 345
319 323 322 321 320 319 318 319 322 320 316 315 317 319 322 322 323 321 316 315 317 318 325 334 338 338 341 342 341 340 339 338 338 337 337 338 338 338 338 338 338 339 338 338 339 339 341 342 342 343 344 345 347 348 348 350 352 353 355 356 356 355 354 352 353 353 353 353 353 352 353 352 351 351 352 352 352 350 347 347 346 346 348 349 347 345
320 320 321 324 323 321 321 321 322 321 317 315 316 318 319 320 323 319 315 319 320 319 327 340 340 336 338 343 341 339 338 338 338 336 337 337 336 336 337 337 336 337 336 336 336 337 339 340 340 341 341 342 343 344 344 345 349 352 354 354 355 356 354 352 353 353 353 353 353 353 354 354 353 353 353 353 351 349 348 347 345 344 345 347 347 345
320 317 318 321 320 322 321 320 320 320 319 319 319 318 318 320 320 317 317 322 322 320 330 343 340 336 340 342 339 338 338 337 336 336 336 335 335 336 336 336 335 335 334 334 335 335 337 337 339 339 339 340 342 342 343 342 344 348 350 350 353 355 355 355 354 353 353 353 353 353 353 353 353 353 352 353 353 351 349 347 346 344 344 345 345 346
315 316 320 318 316 319 320 319 320 319 317 319 319 319 319 319 319 319 320 322 325 328 337 343 341 343 346 342 338 337 336 335 334 335 335 334 334 335 335 335 335 334 334 334 333 334 334 335 336 337 338 338 339 341 342 342 342 345 347 348 350 353 354 356 356 355 355 355 353 352 352 353 353 353 352 353 353 354 353 350 346 344 344 345 344 345
314 317 322 318 314 315 318 318 319 318 317 316 317 319 319 318 318 320 321 321 326 331 337 340 342 345 345 341 338 336 335 335 334 334 334 334 333 333 334 333 333 333 333 333 333 333 333 334 335 335 335 337 337 338 340 341 342 343 345 347 349 351 353 354 356 357 356 356 355 353 352 353 353 353 353 354 353 352 353 353 352 348 345 344 345 345
314 315 319 317 312 312 315 317 316 317 316 314 315 317 317 317 317 318 320 321 323 325 332 337 338 339 340 339 336 336 336 335 335 334 334 334 332 332 332 332 332 332 331 331 333 333 332 333 333 334 334 334 336 337 338 339 341 342 344 346 347 349 350 352 353 355 356 357 357 356 354 352 352 353 354 355 354 353 353 352 352 353 352 349 346 345
316 317 317 314 310 310 313 315 314 314 313 311 313 316 317 317 318 318 319 323 325 325 329 334 336 337 338 337 336 336 336 335 335 334 333 333 333 331 330 330 330 330 330 330 330 330 331 331 332 333 333 332 334 335 336 338 340 341 342 344 345 347 348 349 350 350 353 355 356 357 356 354 353 353 354 355 355 354 352 351 352 354 353 352 352 350
317 318 318 316 312 310 313 314 313 311 310 312 316 318 318 318 318 319 319 322 328 329 329 334 337 337 336 334 335 336 335 334 333 333 332 333 332 330 329 328 328 328 329 329 328 328 329 329 330 331 331 331 332 333 335 336 338 339 340 341 343 344 346 347 347 347 348 350 352 354 354 354 355 355 354 354 356 357 355 352 352 353 352 351 352 353
319 316 316 317 315 312 313 314 313 311 312 316 320 319 319 319 318 322 325 325 328 330 331 333 334 334 333 333 333 333 332 331 330 330 330 330 331 330 328 327 326 326 326 327 327 327 328 328 328 328 329 329 329 331 333 334 336 338 339 340 341 342 343 343 344 345 345 346 347 348 349 352 354 355 355 355 355 357 357 356 355 355 354 353 352 352
321 318 316 317 316 314 313 313 314 316 317 318 319 317 317 319 319 321 325 327 327 329 331 333 332 332 332 331 331 331 330 330 328 328 328 328 329 329 327 325 325 324 324 325 325 325 326 326 326 326 327 327 326 328 331 333 335 337 338 339 339 340 341 341 341 342 343 343 343 344 346 348 350 352 353 354 355 357 357 357 356 355 355 355 355 354
321 322 321 319 316 314 312 312 315 317 317 318 319 318 319 321 320 320 322 325 326 326 330 332 331 330 330 329 329 329 328 329 329 328 326 325 326 326 325 324 323 323 324 324 324 323 323 324 325 325 325 325 325 325 328 331 333 334 336 338 338 338 339 339 339 340 341 341 341 343 344 346 348 350 351 352 355 356 356 356 355 355 355 355 356 356
318 321 323 323 319 314 312 313 315 315 315 318 321 322 322 320 320 321 322 323 325 324 327 330 329 328 328 326 326 327 326 329 330 328 325 324 324 323 324 324 323 323 322 323 323 322 321 323 324 323 323 324 323 324 325 327 329 331 332 334 336 337 338 338 339 339 340 340 341 342 343 344 346 349 349 350 351 353 354 354 354 354 355 354 355 356
318 319 322 323 321 316 314 313 314 316 321 323 322 321 320 317 317 318 316 318 324 325 325 327 328 326 326 325 325 326 326 328 331 328 324 322 322 322 322 322 322 322 321 322 322 321 321 322 323 322 322 322 322 323 324 325 327 328 329 330 333 334 335 337 338 338 339 339 340 341 343 344 345 345 344 344 347 349 351 352 353 353 353 353 354 355
318 318 317 318 318 317 316 313 314 321 326 326 321 319 318 316 316 315 312 315 324 326 323 325 326 324 324 325 325 325 325 327 329 326 323 321 322 321 321 321 321 321 321 321 320 320 320 321 321 321 321 321 321 322 323 324 326 328 328 328 330 331 332 334 335 337 339 339 339 341 342 342 344 344 342 342 344 345 346 349 351 351 352 352 353 354
318 317 316 315 313 315 315 313 316 323 327 324 321 319 317 316 315 315 316 322 326 325 323 323 323 322 323 324 323 324 325 326 325 323 321 321 321 321 321 320 320 320 320 319 319 320 320 320 320 320 320 320 321 321 322 323 326 328 328 328 329 329 330 331 332 335 337 337 339 341 339 336 337 340 343 343 341 339 341 345 348 350 351 352 353 353
317 316 316 315 313 314 314 313 316 324 326 322 320 319 316 316 318 319 324 327 325 323 323 322 321 322 322 322 322 322 322 322 321 320 320 320 319 320 320 320 320 320 319 319 319 319 319 319 320 320 319 319 320 320 322 323 326 328 328 328 329 329 329 330 331 333 335 336 338 340 339 335 331 332 338 340 336 334 337 341 344 348 348 347 350 353
319 316 315 315 315 315 314 312 316 323 325 322 321 320 318 320 323 326 326 325 322 322 322 321 320 321 320 320 320 320 320 320 320 319 319 319 319 319 319 320 320 319 319 319 318 319 319 319 319 319 318 318 319 321 322 323 325 326 327 328 329 329 328 329 329 332 334 335 335 336 338 340 337 333 335 336 333 333 338 340 339 341 342 344 347 350
319 317 316 316 315 314 314 315 319 323 324 321 320 322 323 323 324 325 324 322 321 321 321 321 320 319 319 319 319 319 319 320 319 318 319 319 319 319 319 320 320 320 319 319 319 319 319 319 319 318 318 318 320 321 322 323 324 325 326 327 328 328 328 327 327 329 333 334 333 332 333 337 339 338 337 336 333 336 341 342 339 337 339 345 350 350
318 320 320 321 319 317 318 320 322 323 322 320 319 322 323 322 322 323 322 322 321 320 320 320 320 319 319 319 319 319 319 318 317 318 318 318 318 319 319 319 319 319 319 319 320 320 320 319 319 318 318 319 320 321 322 322 323 324 325 325 325 325 326 326 326 328 331 332 332 332 332 332 333 335 338 339 340 340 341 342 344 342 338 338 343 347
318 321 322 321 320 320 320 321 322 323 322 320 318 319 320 320 320 320 320 320 320 319 319 319 318 319 319 319 318 318 318 318 317 318 318 318 318 318 319 318 318 319 319 319 319 319 319 318 318 319 320 320 321 321 321 321 322 323 324 324 324 324 324 325 327 327 328 329 330 331 330 329 328 330 334 337 339 340 339 340 345 347 342 337 340 347
319 319 320 319 318 317 318 320 321 321 321 320 319 319 319 318 319 319 318 318 318 317 318 318 318 318 318 318 319 319 318 318 317 317 317 318 317 318 318 318 317 317 317 318 317 318 318 318 319 319 320 320 321 321 321 321 322 322 323 323 324 324 324 325 326 326 327 328 330 330 329 328 329 330 332 335 338 340 340 341 344 345 343 343 346 350
320 319 320 320 319 317 317 318 320 320 320 320 319 319 319 318 318 319 318 318 318 317 317 317 317 316 316 317 317 318 317 316 316 316 317 317 317 317 316 316 316 316 316 316 316 317 317 317 318 318 319 320 320 321 321 321 321 321 322 323 324 324 325 326 326 327 327 328 330 331 330 330 331 332 333 336 338 338 339 340 343 343 342 343 345 347
319 319 319 320 320 319 318 318 319 319 319 319 319 319 319 319 319 319 318 318 318 317 317 317 317 316 316 316 316 316 316 315 316 316 316 316 316 316 315 315 315 315 315 315 315 315 316 316 317 318 318 319 319 319 320 321 321 321 322 322 323 324 325 326 326 327 327 327 329 330 330 329 330 331 333 335 334 334 335 337 339 341 341 342 344 344
322 322 322 321 320 321 321 321 321 321 320 321 320 319 318 318 318 318 318 318 317 317 317 317 316 316 316 315 315 315 315 315 315 315 315 315 315 315 314 314 314 314 314 314 314 314 315 315 316 316 317 317 318 319 319 320 320 321 321 321 322 323 323 324 326 327 327 328 329 329 329 329 329 330 331 332 331 331 334 335 335 336 338 338 339 339
324 324 324 324 323 323 322 321 321 321 321 321 320 320 319 319 318 318 318 318 317 317 317 317 316 315 315 315 315 314 314 315 314 314 314 314 314 313 314 313 313 313 313 313 313 314 314 315 315 316 316 317 317 318 318 319 319 319 320 320 320 321 321 322 323 324 326 327 328 328 329 329 329 329 330 331 331 332 333 334 335 335 336 337 338 338
Wind_Speed
8 7 9 9 10 12 13 14 14 16 17 15 12 10 9 9 7 6 9 11 13 9 7 8 6 9 13 12 11 11 9 8 9 8 7 7 7 5 4 8 15 15 14 17 21 21 21 21 21 20 19 18 18 20 21 20 18 18 17 18 19 17 17 16 16 15 14 14 14 14 13 12 12 12 12 11 12 13 12 13 12 12 12 12 12 10
9 9 10 12 14 14 13 15 16 17 18 17 14 10 9 9 6 9 9 8 10 8 6 8 7 8 11 13 13 12 12 11 11 11 12 11 7 4 5 8 12 14 14 17 19 21 22 21 22 21 19 19 19 20 21 20 19 19 18 19 19 18 18 16 15 15 14 14 13 13 13 12 12 12 11 11 13 14 13 13 12 11 12 11 12 11
9 10 12 14 14 14 14 14 15 18 17 14 12 9 9 8 5 10 11 9 8 6 6 10 9 8 11 13 14 14 12 11 12 12 10 9 5 2 6 9 9 14 15 16 17 20 22 22 23 22 20 20 20 20 21 20 19 19 19 20 19 19 18 16 16 15 14 14 13 12 12 12 12 11 11 11 13 14 13 13 12 11 12 11 11 10
8 9 13 14 13 14 15 14 15 15 13 11 9 7 8 8 6 7 10 12 9 5 9 12 8 8 12 12 13 14 12 10 11 9 6 6 7 7 8 10 9 12 14 16 17 18 21 23 23 22 21 21 20 21 21 21 20 19 20 21 20 19 19 17 17 16 14 14 12 11 11 11 11 11 11 12 13 13 12 12 11 11 12 11 10 10
9 10 13 15 14 14 15 15 13 10 9 11 11 10 9 7 6 5 5 9 9 8 12 12 6 6 11 12 12 12 11 10 10 8 5 5 7 7 8 9 10 11 13 15 17 17 19 21 22 22 22 21 21 21 21 22 21 19 20 21 20 19 19 18 18 17 15 15 12 10 11 12 12 11 13 13 12 12 12 12 12 11 12 12 11 10
11 11 12 16 16 15 14 12 11 9 8 10 12 14 13 7 9 10 6 4 6 8 11 12 5 4 10 12 13 12 12 13 12 10 7 6 7 7 8 10 12 12 11 13 16 17 18 20 22 22 23 22 22 21 22 22 21 19 20 21 20 19 18 18 19 18 16 16 14 12 13 15 13 12 13 13 13 14 13 12 12 12 12 11 11 11
9 11 13 15 16 15 14 11 12 12 9 8 10 14 16 12 9 13 10 6 6 5 10 12 6 4 8 9 13 15 15 15 12 12 11 8 8 9 10 11 12 12 11 10 14 17 18 20 21 22 23 23 22 22 22 22 22 21 21 22 20 20 19 18 20 19 17 17 15 13 14 15 14 12 13 13 13 15 13 12 13 13 12 11 11 11
9 14 14 13 14 15 13 10 11 12 9 7 9 13 16 16 10 9 8 7 7 7 8 13 9 4 6 9 14 15 15 16 13 13 13 11 11 13 13 11 9 11 13 11 11 16 18 19 21 22 23 24 23 23 23 23 23 23 24 24 21 21 20 18 20 20 18 18 17 14 14 13 13 12 13 12 13 13 13 14 15 13 12 11 11 12
10 15 15 12 12 11 9 9 10 11 10 9 11 12 15 16 12 9 8 8 9 9 6 10 10 5 6 9 11 11 13 16 15 15 15 14 13 13 12 8 4 7 11 13 14 16 18 19 22 23 22 23 24 24 23 23 23 24 25 25 22 22 20 19 21 21 18 19 18 16 14 13 12 11 12 12 11 12 12 13 14 14 13 12 11 12
11 13 15 11 10 8 6 10 13 12 9 11 14 14 13 14 12 8 7 6 8 8 5 9 12 6 5 7 8 9 11 12 12 12 13 14 14 13 10 8 6 8 10 11 12 13 17 20 22 23 23 23 23 24 24 23 24 24 25 26 24 22 21 21 22 22 19 18 18 17 16 14 13 12 12 12 11 12 12 13 14 14 15 13 11 12
10 11 13 9 7 8 8 11 15 13 10 11 12 10 10 9 9 8 7 6 6 7 8 11 12 8 6 7 7 7 9 10 11 10 9 11 13 13 12 11 11 11 9 9 9 11 15 19 20 21 22 23 23 24 24 23 24 24 24 26 25 23 23 22 23 23 20 19 19 18 17 15 15 13 13 13 12 12 12 13 13 14 15 13 12 13
11 10 9 7 6 10 12 11 13 12 9 11 10 7 6 4 5 6 6 6 7 7 9 13 13 10 5 6 9 9 10 10 10 11 11 11 12 12 12 13 11 10 9 8 6 8 11 14 18 20 21 22 22 23 24 23 24 25 25 26 26 25 24 23 24 24 21 20 19 19 18 17 16 14 14 14 13 13 13 13 13 13 14 13 13 13
10 11 8 8 9 12 13 10 9 10 9 10 9 8 7 6 4 5 6 8 8 8 10 13 14 8 2 7 12 12 12 11 8 8 9 11 12 12 11 12 11 10 9 6 4 6 8 10 15 19 20 20 19 21 24 23 23 25 25 26 26 25 25 24 24 24 23 22 21 20 19 18 17 16 14 15 14 14 13 13 13 13 13 14 14 14
9 11 12 13 10 11 14 10 8 9 9 9 9 7 8 7 7 8 8 8 8 9 11 14 13 7 7 8 11 11 11 11 9 7 7 8 11 10 8 9 10 11 11 8 6 7 8 10 14 17 18 19 19 18 22 24 24 25 25 26 27 26 26 25 24 25 25 24 22 21 20 19 19 18 16 16 15 14 14 13 13 13 13 13 14 14
10 10 12 13 8 9 13 12 9 9 10 10 9 9 9 8 7 8 8 7 8 9 11 13 9 7 8 7 10 13 11 10 9 9 9 7 7 7 6 7 9 10 9 10 10 10 10 12 15 16 17 19 18 16 20 23 23 24 25 26 27 26 26 26 25 25 25 25 24 23 22 21 20 19 18 17 16 15 15 14 14 14 14 13 13 13
10 9 10 14 11 10 13 14 12 10 9 9 9 10 9 9 8 7 7 9 9 8 9 9 2 7 9 8 10 13 13 12 10 10 12 11 8 6 5 5 7 7 6 7 9 11 12 13 13 15 15 17 17 16 18 19 19 22 25 27 27 26 26 26 25 25 24 25 24 24 23 22 21 20 19 18 18 17 16 15 15 15 14 13 14 14
8 10 11 17 14 9 12 16 13 8 6 6 10 10 8 9 10 7 7 9 9 9 8 6 8 8 10 9 8 11 13 13 11 11 13 14 11 7 3 3 4 4 4 3 2 4 7 10 12 14 16 16 16 17 18 15 15 17 21 26 27 26 26 25 25 25 25 24 25 25 25 24 22 21 20 19 19 18 17 17 16 15 14 14 14 15
6 9 6 12 13 8 11 17 15 12 8 5 8 10 8 10 10 7 6 7 9 9 8 10 14 10 8 7 8 11 12 11 12 11 11 13 13 10 5 4 5 5 4 2 1 1 3 7 12 14 16 17 17 18 16 14 16 16 18 24 27 26 26 26 25 25 25 24 24 24 26 25 24 23 21 20 20 20 18 18 18 16 15 15 15 14
7 6 1 5 10 8 9 13 14 14 13 9 6 6 7 9 9 7 6 6 7 9 8 12 17 11 7 8 10 12 11 11 12 11 11 11 11 10 8 7 8 6 4 2 1 3 5 7 9 10 12 14 15 13 9 10 16 16 15 19 22 25 25 24 25 24 24 24 23 23 25 25 24 24 23 21 21 21 20 19 19 18 17 17 16 14
5 2 2 6 10 9 7 7 8 9 12 11 7 4 6 7 7 8 6 5 6 7 9 11 12 7 6 8 10 13 11 11 12 11 11 11 10 9 9 10 9 5 3 3 1 3 6 7 6 7 9 9 9 10 9 10 12 12 12 14 18 23 24 24 25 24 23 24 22 21 23 25 25 24 23 23 23 22 22 21 21 19 18 18 17 16
3 4 4 6 11 11 6 6 9 9 10 10 7 6 8 7 7 9 8 7 6 6 8 7 6 5 6 7 9 13 12 11 12 11 11 12 11 10 10 10 9 7 5 4 3 1 3 5 6 6 6 8 9 8 13 13 12 14 18 20 17 15 18 23 25 24 23 24 23 22 22 23 24 25 23 23 23 23 23 22 22 21 20 19 18 18
2 4 3 3 9 10 9 11 14 12 10 10 9 8 8 9 9 8 7 8 8 7 7 4 7 5 5 6 7 11 12 12 12 11 11 12 14 12 9 10 10 9 8 6 6 7 5 1 5 4 6 10 10 9 9 12 17 21 22 22 17 12 16 21 22 21 19 18 18 20 22 23 23 23 24 23 23 24 24 23 23 23 21 21 20 20
5 3 5 5 6 7 9 14 13 8 7 9 9 9 10 10 9 8 6 7 9 8 3 5 8 5 5 7 8 9 12 12 11 11 11 12 13 13 11 11 10 9 9 7 7 9 10 8 2 1 5 7 8 8 8 11 17 19 19 21 20 18 21 21 20 20 17 15 15 14 15 20 24 24 24 24 25 24 24 24 24 24 23 22 21 21
6 3 4 6 5 4 5 8 8 5 6 8 8 10 11 8 4 5 5 2 5 7 2 5 5 5 5 6 8 10 11 12 11 11 11 10 12 13 12 11 9 9 9 9 8 9 11 14 11 8 7 6 5 2 3 6 9 11 13 17 16 17 21 18 16 19 19 19 21 18 14 17 21 25 25 25 25 26 25 24 24 24 24 23 22 22
5 3 4 4 3 4 6 6 5 7 7 6 7 10 10 5 6 8 5 2 4 6 3 6 4 5 4 4 8 11 12 12 11 11 11 9 11 11 10 10 9 9 10 10 11 11 12 14 13 13 12 9 8 6 4 2 3 4 6 8 7 8 14 15 11 11 12 14 19 22 21 21 23 25 27 27 26 26 27 26 25 25 25 24 23 23
5 3 3 3 4 5 4 3 4 5 7 8 12 13 9 4 5 7 6 2 6 5 5 7 6 6 5 6 9 11 11 13 12 12 12 11 11 11 10 10 9 9 10 11 12 12 12 12 12 14 15 14 13 10 7 6 4 1 4 5 5 5 9 12 9 8 12 17 17 20 26 27 27 28 28 29 28 27 28 27 25 25 26 25 24 23
4 3 2 1 3 4 2 4 9 7 8 10 14 13 5 3 5 5 5 3 3 3 5 8 10 11 8 8 9 11 10 11 10 10 12 11 12 11 10 10 10 10 10 11 11 11 12 12 12 15 16 17 19 17 12 11 8 5 5 2 3 7 9 11 10 8 12 17 20 23 27 29 30 32 30 29 29 27 27 28 26 25 25 26 25 24
4 5 4 5 5 5 3 5 11 9 6 10 17 16 5 4 6 6 7 3 5 3 3 7 11 13 11 9 10 10 9 10 10 9 10 11 11 11 11 11 12 12 12 12 12 12 12 12 12 14 16 18 19 19 16 15 14 12 11 10 7 3 6 8 10 9 8 11 14 17 21 22 21 25 29 28 30 29 27 26 27 27 26 26 25 24
4 5 3 5 9 8 4 6 9 9 10 12 19 17 5 5 7 9 12 6 5 2 5 9 10 11 10 11 13 11 9 10 10 9 9 10 11 11 11 12 12 13 13 13 13 12 12 12 12 14 16 17 17 18 15 14 14 14 13 12 11 9 6 4 5 7 8 10 10 11 14 16 17 21 28 28 25 28 29 27 26 25 26 27 26 24
3 3 4 6 7 8 7 6 8 8 9 9 5 6 2 6 8 9 11 5 4 5 10 11 10 9 5 6 11 11 9 9 9 9 9 9 11 11 10 11 12 12 13 13 12 12 12 12 13 14 16 17 17 17 14 11 12 13 12 10 10 11 11 7 2 1 3 6 8 10 11 13 18 20 22 28 28 22 21 24 25 24 23 25 26 25
2 2 4 7 8 6 6 6 8 8 7 6 1 5 1 8 7 5 6 2 4 8 11 10 11 9 2 4 10 12 10 9 8 9 9 8 9 10 9 11 11 12 13 12 12 12 12 12 13 14 16 17 16 17 14 9 10 11 11 10 10 10 11 11 9 7 5 4 3 5 8 9 14 17 17 19 22 23 23 18 15 18 20 22 23 23
2 2 1 3 6 6 6 7 8 8 7 9 8 5 5 8 7 6 6 2 2 6 12 11 8 6 5 6 10 11 11 10 9 8 9 8 8 10 10 10 10 11 12 12 12 12 12 12 13 14 16 16 15 16 15 10 9 10 12 12 11 12 12 13 13 12 9 8 8 7 5 7 9 11 11 12 13 16 20 21 20 18 16 14 18 20
2 3 3 3 5 8 8 7 5 6 6 8 9 9 10 8 8 9 7 1 6 4 8 10 7 6 8 9 11 10 10 11 10 8 7 7 8 9 9 10 11 11 11 11 11 12 11 12 13 14 15 15 15 15 15 13 11 11 13 13 13 13 14 14 14 13 13 11 10 9 8 5 5 6 9 11 12 14 14 12 12 18 21 18 14 15
2 3 4 3 4 8 4 4 0 5 6 3 3 3 6 7 7 8 6 4 4 6 4 9 11 10 10 9 10 10 10 11 10 9 7 6 6 7 8 9 10 10 10 11 11 11 11 12 13 14 15 15 14 14 14 14 12 12 13 13 13 14 15 15 14 14 14 14 12 10 9 8 7 6 6 10 14 14 13 15 18 19 22 21 18 16
2 3 4 3 5 7 2 4 3 6 3 3 7 7 5 3 1 2 3 3 5 7 8 11 14 11 8 9 12 11 11 12 10 9 8 6 5 6 7 8 9 9 10 10 10 10 11 12 13 13 13 15 14 13 14 14 12 12 13 13 13 15 16 15 14 14 14 14 13 12 9 8 8 7 6 6 11 15 15 17 17 17 21 25 23 22
3 3 4 3 4 6 4 4 4 2 3 6 7 5 4 3 2 2 2 2 3 6 8 9 10 10 9 11 11 10 11 13 12 9 8 7 5 5 6 7 8 9 9 10 11 11 12 12 12 12 12 13 14 13 13 14 13 12 13 13 13 15 15 15 14 14 14 14 14 13 11 9 8 7 7 7 7 11 13 15 16 14 14 17 18 21
4 4 3 3 4 5 6 5 3 2 4 5 5 4 3 2 2 1 2 3 3 5 8 8 7 9 10 9 9 8 7 8 10 8 8 9 8 6 5 7 8 8 9 10 11 12 12 11 10 11 11 13 13 12 12 13 13 12 12 12 13 13 14 14 15 15 14 14 13 13 12 12 10 9 9 9 8 9 11 12 12 12 13 14 16 18
4 3 3 3 3 4 6 5 4 5 4 3 7 7 5 4 5 4 1 3 4 5 9 9 7 7 8 7 7 7 3 2 5 7 7 7 7 8 7 6 7 8 8 10 11 11 11 10 10 10 11 12 12 11 11 12 12 12 12 12 12 12 13 13 14 14 14 14 13 12 12 14 13 12 12 12 11 10 11 11 10 11 12 14 16 20
5 4 3 4 4 4 6 6 5 4 2 2 7 8 6 4 5 1 3 4 4 4 7 9 9 8 5 3 4 5 2 3 4 6 6 5 5 7 7 6 8 8 8 10 11 11 10 9 9 9 10 12 12 11 10 11 11 12 12 12 12 12 12 12 13 12 12 13 12 12 14 14 14 15 16 15 14 13 12 12 12 11 12 13 15 18
5 5 4 5 6 5 6 6 3 1 2 5 6 6 5 4 2 3 5 4 5 5 5 3 7 9 5 3 2 2 3 2 2 4 5 5 6 7 6 6 7 8 9 10 11 10 8 8 9 10 11 12 11 11 10 11 11 11 11 11 11 12 12 12 12 11 10 11 11 10 12 13 14 16 17 16 16 17 15 14 13 13 13 13 14 15
4 5 5 6 7 7 7 7 2 3 4 5 6 6 5 2 1 3 3 2 4 6 5 4 1 6 8 5 2 1 3 5 5 3 2 5 7 6 6 7 7 8 9 10 10 9 8 9 10 10 11 11 11 12 11 11 10 10 10 10 10 11 11 11 12 11 11 11 10 9 10 11 12 13 14 14 16 17 18 18 16 15 14 14 15 15
4 4 5 6 7 6 5 6 3 3 4 5 7 6 3 1 1 2 3 3 5 6 6 5 6 3 6 7 4 1 2 5 6 4 4 6 5 5 5 7 8 9 9 9 9 10 10 9 9 10 11 11 12 12 11 11 10 9 9 9 9 10 10 11 11 11 11 11 10 9 9 10 10 11 11 12 14 16 18 19 19 17 15 14 15 15
3 3 5 6 6 5 6 6 3 2 4 5 5 3 2 1 2 3 4 5 7 5 5 5 7 6 3 4 4 1 1 3 5 5 4 4 5 5 6 7 8 9 9 10 10 11 11 10 10 11 11 11 11 11 11 11 11 9 9 9 9 9 10 10 11 10 10 10 10 10 11 10 9 9 9 9 10 12 15 16 17 18 17 15 14 15
4 4 4 3 3 4 5 4 2 2 5 5 2 3 5 5 3 2 3 5 4 1 2 3 2 3 2 1 2 2 2 0 3 4 3 2 4 5 6 7 8 9 10 10 11 12 12 11 11 12 11 11 11 11 11 11 11 10 10 10 10 10 11 11 12 10 9 9 10 12 12 10 9 9 9 8 8 8 10 12 13 15 18 16 14 13
3 2 2 2 2 3 2 0 1 3 6 5 4 5 8 6 4 3 2 3 2 2 2 2 3 3 3 3 2 3 5 4 2 4 4 2 4 5 6 7 8 9 11 11 12 13 14 13 13 13 12 12 12 11 11 10 11 11 11 11 12 12 13 13 12 11 10 11 12 12 11 11 12 11 9 8 8 8 10 11 10 11 14 15 15 14
3 2 0 2 4 4 3 3 4 5 6 5 3 5 5 4 4 4 2 1 1 1 1 1 2 3 3 1 4 5 5 4 3 4 4 4 5 6 6 7 8 9 11 12 13 14 15 14 14 13 13 13 13 12 12 11 11 11 12 12 13 13 14 14 14 13 13 13 13 12 12 12 13 12 10 8 9 11 12 11 11 10 10 11 14 14
7 6 5 4 4 4 4 6 7 6 6 5 5 6 6 3 3 3 2 1 2 1 2 3 4 4 5 3 0 1 1 2 3 6 5 5 6 6 6 7 8 9 11 12 13 13 14 14 14 14 15 14 14 13 13 12 12 12 12 13 13 14 15 15 14 14 14 14 13 13 14 14 13 12 12 10 9 10 11 11 11 11 11 11 12 11
2 3 5 5 5 5 4 3 4 4 4 4 3 5 6 6 6 6 4 3 3 2 2 2 2 2 1 1 2 1 1 3 5 6 6 5 5 6 7 8 8 9 10 11 13 13 13 14 14 15 16 16 14 14 14 13 13 13 13 13 13 13 14 14 14 14 14 15 14 13 14 14 13 13 13 10 8 8 9 10 11 11 11 11 10 9
2 1 3 4 5 7 6 5 5 6 7 5 5 5 3 3 5 7 7 6 6 4 3 1 1 0 1 0 2 2 3 4 5 6 6 6 5 6 8 9 9 9 11 11 12 13 13 14 15 15 16 16 15 15 15 14 14 14 14 14 13 13 14 14 14 15 15 15 15 14 14 14 13 12 11 9 9 10 10 10 10 11 13 14 12 11
1 3 4 4 4 4 3 4 3 3 3 2 2 3 3 2 3 5 6 7 7 6 6 5 5 5 3 1 1 3 3 4 5 6 6 6 7 7 8 10 11 11 11 12 12 13 13 14 15 15 16 16 16 16 15 15 15 14 14 14 14 14 14 15 15 15 15 14 14 13 13 13 13 12 12 12 13 13 13 13 13 14 16 17 17 17
1 0 2 2 5 5 4 5 5 3 1 1 2 2 2 3 5 6 6 6 6 6 7 7 7 6 6 8 10 9 6 5 5 5 6 7 8 10 10 11 12 12 13 13 13 13 13 14 14 15 15 16 16 16 16 16 16 15 15 15 14 14 15 15 15 15 15 14 14 14 14 14 14 14 14 14 14 15 15 16 16 15 15 17 17 17
Wind_Direction
203 212 214 217 227 221 219 226 237 246 250 258 253 238 230 216 209 183 171 172 162 155 174 178 162 148 141 151 178 174 161 170 163 163 188 215 237 237 230 203 174 171 176 173 174 171 168 168 163 164 166 163 162 157 154 157 157 158 159 154 156 161 156 157 160 158 160 161 163 159 158 161 154 151 151 147 144 141 142 148 148 145 147 147 144 145
205 221 223 217 226 231 228 227 234 248 254 260 265 267 263 237 189 152 157 171 163 152 163 171 167 158 145 151 174 173 166 177 172 173 190 203 225 242 257 234 182 171 174 173 175 171 169 169 164 164 169 169 164 157 157 161 161 163 162 157 161 163 161 164 165 163 165 165 166 164 164 162 155 154 156 151 149 147 147 151 152 148 149 149 147 152
207 224 228 221 225 232 239 234 229 242 248 255 264 266 274 260 195 151 149 169 178 154 156 175 174 160 150 152 164 172 177 182 176 178 184 186 199 229 256 252 203 180 176 173 177 173 172 171 164 165 172 172 166 162 163 165 164 165 163 161 164 165 166 168 168 168 167 167 169 167 165 161 156 157 156 150 149 149 151 154 155 156 154 150 151 157
206 221 227 226 227 225 237 239 229 236 242 250 258 250 267 261 206 162 161 170 176 168 168 181 188 161 153 156 161 170 179 180 172 160 144 164 180 183 214 246 223 185 178 177 178 175 173 172 166 167 173 173 168 167 168 168 168 167 164 165 168 167 168 170 170 170 168 168 169 164 162 156 152 156 151 146 149 151 154 157 158 162 159 151 154 158
224 217 215 224 232 225 231 237 230 234 233 236 244 240 245 236 197 186 183 176 178 188 177 172 183 164 157 160 159 162 167 173 169 147 135 180 190 183 197 240 238 198 184 182 180 178 175 173 169 168 173 174 171 170 171 172 173 170 165 168 171 170 170 172 171 170 169 169 165 158 159 157 153 155 153 150 152 155 160 162 162 165 160 157 160 159
232 223 210 214 227 227 229 234 227 228 227 227 232 238 243 219 185 196 202 190 197 203 183 173 174 164 168 165 156 158 161 167 172 168 180 194 188 193 194 210 221 206 192 188 183 180 177 174 170 168 173 177 173 174 175 175 175 172 167 169 173 173 172 173 172 171 169 169 167 160 159 160 158 159 163 162 160 163 167 166 164 165 165 166 162 159
231 231 224 212 217 222 226 231 224 222 228 227 216 226 248 253 210 201 201 200 224 225 190 192 204 154 164 168 163 166 159 156 168 175 180 189 189 197 199 198 203 197 192 198 193 184 178 176 172 170 176 180 177 175 176 176 177 172 167 170 173 175 176 174 174 173 170 170 173 168 161 162 164 164 171 173 166 166 170 168 162 162 170 170 160 159
225 232 232 215 216 218 216 225 225 220 224 236 221 211 233 250 244 236 228 211 239 254 198 196 210 169 155 179 178 167 150 149 167 177 175 186 195 197 201 199 199 196 188 192 203 192 180 177 176 175 179 183 179 176 177 178 177 171 168 172 173 175 178 177 176 175 173 173 175 174 167 166 171 170 169 172 167 164 165 167 164 161 169 170 163 163
211 233 231 209 222 227 207 219 224 219 220 234 240 226 225 232 237 253 244 213 232 254 216 194 206 188 141 170 177 156 144 155 169 177 179 186 193 198 200 194 214 234 203 189 198 194 182 179 179 178 182 185 181 176 178 179 175 170 168 173 174 175 179 179 177 178 177 176 176 177 175 172 177 172 166 168 168 165 162 163 163 162 166 170 167 167
196 227 233 206 219 231 197 218 228 223 220 229 245 257 243 216 209 234 240 219 234 254 244 207 203 188 130 153 168 149 147 163 166 171 183 184 185 193 189 174 197 235 224 199 198 196 185 182 181 180 183 188 183 176 179 179 176 172 169 173 176 176 179 180 179 180 180 179 178 179 178 176 179 173 169 171 167 164 161 158 162 163 166 170 167 166
204 215 228 201 209 233 218 221 228 228 228 227 236 264 261 209 192 217 223 225 238 242 245 231 214 197 168 162 169 153 148 163 162 164 185 188 188 190 182 180 192 204 209 201 203 205 192 183 181 182 186 190 184 176 179 180 176 174 172 174 177 178 180 181 180 181 182 181 182 184 182 178 179 175 172 174 167 165 165 162 166 167 166 171 171 168
223 219 210 183 205 232 233 225 225 228 226 229 224 222 236 212 204 222 219 233 240 233 238 239 232 227 210 155 149 139 134 146 153 163 181 191 192 188 184 187 189 192 198 195 199 210 202 190 183 185 191 195 188 177 178 183 178 175 175 175 177 180 181 182 181 182 183 183 184 187 186 182 181 178 176 176 173 172 173 172 172 172 171 175 178 173
234 238 203 188 209 225 234 220 212 219 216 229 230 209 209 203 200 221 220 223 225 232 240 234 229 229 69 95 123 127 127 132 137 156 171 179 182 185 189 186 182 189 191 179 199 217 209 198 188 188 193 197 197 182 177 183 181 176 177 177 179 181 182 183 182 182 185 186 187 188 188 186 183 182 181 180 180 179 181 182 178 177 179 180 180 178
216 229 209 198 197 214 239 230 196 201 203 215 221 209 208 200 196 210 218 219 218 228 238 233 221 177 107 103 120 123 124 131 138 149 159 169 171 175 189 184 180 190 184 167 190 217 211 201 191 191 191 195 203 193 182 187 183 176 177 179 181 183 183 183 183 184 186 187 188 189 189 189 187 185 184 183 185 185 186 189 185 183 187 186 184 181
211 213 210 210 195 194 233 251 229 205 196 204 222 222 211 209 217 214 207 217 222 221 225 228 219 152 133 133 131 132 129 131 142 147 146 146 143 149 181 199 192 192 185 174 185 200 205 201 195 194 194 194 202 200 191 191 184 176 176 178 182 184 184 185 185 185 187 188 189 190 190 190 190 189 187 186 188 188 188 191 193 191 190 189 189 186
237 228 206 208 209 188 206 243 251 230 204 194 219 237 218 208 227 230 216 223 226 221 215 213 163 97 124 131 127 131 129 129 132 127 122 118 116 130 168 199 193 181 174 178 187 193 194 194 196 200 199 196 202 205 198 196 190 179 176 178 183 186 186 186 187 188 189 189 189 190 191 191 192 191 191 191 191 191 192 193 196 199 194 189 191 189
256 258 222 195 201 198 202 226 234 223 218 198 208 229 229 219 234 244 230 229 229 225 212 159 103 104 132 135 130 122 116 119 118 105 106 114 121 125 131 153 151 147 148 148 161 185 194 195 198 203 202 198 202 208 206 201 193 181 177 179 182 187 189 188 188 190 191 191 190 190 191 192 193 194 194 194 194 195 196 196 197 201 199 193 192 190
273 275 237 175 186 204 211 225 225 207 217 248 212 206 219 235 248 264 249 232 222 224 215 143 129 144 149 139 141 126 111 110 110 102 97 106 119 126 129 120 97 98 115 123 152 218 251 214 201 201 201 198 200 209 209 193 181 179 181 182 183 187 190 190 190 192 191 192 192 192 192 193 194 196 197 197 196 196 197 198 198 199 199 198 197 192
290 287 282 174 194 194 196 223 230 204 205 244 243 195 217 235 236 242 251 245 222 224 220 158 144 156 155 145 148 135 120 110 106 102 96 94 103 112 115 107 88 76 74 74 168 219 252 228 203 194 195 196 193 194 191 171 172 180 186 189 190 192 193 193 193 192 192 193 194 194 194 194 196 197 198 199 197 197 198 197 199 200 199 198 199 198
307 267 239 236 220 198 180 211 232 205 206 244 269 247 242 246 236 226 221 242 243 234 219 170 143 138 136 142 139 125 118 114 106 100 97 92 83 77 79 90 91 78 55 43 68 206 225 225 215 206 201 191 168 171 194 189 174 175 192 212 209 198 197 199 198 195 192 193 195 197 197 197 198 199 200 201 198 198 200 198 198 200 200 197 197 198
258 227 229 229 219 210 185 193 219 213 207 228 242 231 226 225 242 238 214 219 244 247 227 186 129 99 111 129 129 119 115 111 107 103 99 95 86 70 56 64 79 88 88 59 30 13 238 225 218 208 172 130 120 161 202 201 185 181 196 216 226 221 212 206 203 201 196 196 197 197 197 199 201 201 202 204 201 200 202 201 199 200 200 198 196 196
252 256 279 241 216 213 198 200 217 224 221 220 219 220 217 212 225 234 218 218 230 254 255 180 128 111 114 128 129 120 112 103 103 106 104 100 93 85 69 57 57 69 82 74 54 45 29 257 215 193 123 121 138 169 183 181 191 194 196 207 224 246 239 224 218 211 200 202 207 203 200 200 202 204 205 206 205 204 204 203 202 200 199 199 198 198
0 295 292 280 240 223 207 196 200 225 264 260 242 223 215 217 222 218 217 225 224 232 249 109 121 123 128 140 133 115 107 105 107 104 101 99 95 92 88 77 65 64 71 68 63 57 49 50 63 103 95 112 142 166 164 171 192 196 196 206 216 225 228 230 231 220 209 217 227 225 218 209 203 204 208 209 207 207 207 204 204 202 200 200 199 199
340 258 255 289 302 278 219 184 183 228 271 271 254 231 217 221 266 261 244 271 254 236 167 96 123 134 136 136 122 116 114 113 111 101 99 101 98 94 90 84 78 74 76 72 64 57 54 52 45 42 61 71 66 88 147 166 192 195 195 207 214 215 214 217 221 212 207 216 219 221 239 243 224 208 206 212 210 209 209 206 204 204 202 201 200 199
322 242 220 263 289 244 208 183 200 234 245 247 237 228 225 239 335 328 322 16 296 284 46 79 114 128 144 149 127 129 124 114 109 100 95 90 87 90 92 91 84 74 74 74 66 56 49 46 40 41 55 59 33 6 2 3 254 213 183 196 205 211 217 222 224 207 203 215 217 213 220 241 249 229 211 211 213 210 210 208 205 203 203 204 204 201
313 281 245 247 246 236 210 204 249 238 227 234 227 217 219 257 311 327 334 305 264 288 52 91 125 127 154 172 146 137 121 110 111 110 106 97 88 87 85 87 87 77 71 67 63 58 51 42 33 34 42 46 41 35 30 13 336 198 153 195 219 231 237 238 238 224 218 221 224 225 220 223 241 245 226 213 214 213 210 210 208 204 203 206 208 205
311 288 278 274 274 297 315 290 296 271 219 226 229 216 212 307 312 314 301 299 311 334 65 103 135 142 163 182 149 132 123 114 112 110 104 97 92 93 89 86 87 82 75 67 63 63 62 55 41 35 35 37 42 46 43 31 30 64 86 71 248 245 248 245 241 235 230 227 226 230 227 219 227 244 240 221 215 216 212 210 210 207 203 204 208 209
306 258 211 184 231 284 317 291 298 298 270 250 233 217 215 298 307 301 268 280 21 3 106 125 146 149 158 168 139 124 125 120 113 106 103 101 98 95 93 90 85 83 79 74 69 63 63 64 58 49 45 42 44 43 30 20 28 45 53 44 28 316 273 257 245 235 230 237 235 229 230 228 236 262 267 245 224 219 217 213 211 210 205 203 207 212
303 267 235 211 223 232 252 285 289 301 320 286 234 209 201 270 266 267 259 270 356 6 137 141 155 147 146 151 137 130 127 112 102 95 97 110 106 91 86 85 80 78 76 74 74 69 63 63 62 61 59 55 57 52 30 9 15 34 43 39 37 29 3 320 250 238 231 236 249 250 244 243 254 285 301 290 256 230 221 217 214 211 207 202 205 211
302 303 337 316 270 226 224 273 282 284 322 322 237 161 73 296 268 258 257 276 33 110 136 141 135 116 123 143 125 121 119 105 100 93 86 94 97 87 81 79 76 75 73 68 70 71 68 65 61 61 63 63 66 67 52 15 5 25 34 23 25 33 20 11 37 356 276 257 264 273 271 256 249 262 295 309 301 279 249 231 220 214 210 205 204 208
310 340 358 322 299 252 220 249 271 273 298 314 268 125 151 278 281 279 273 304 99 137 145 140 122 108 149 176 123 114 111 105 104 97 83 81 90 88 79 73 71 72 72 66 63 65 65 64 61 58 60 60 63 69 66 37 7 20 37 28 15 21 24 23 39 50 27 4 342 303 294 281 259 256 275 296 302 306 307 297 264 236 222 211 207 208
274 295 330 279 277 261 220 219 246 262 278 278 259 207 213 255 265 254 241 247 244 181 156 143 129 135 191 174 129 120 118 116 111 96 81 70 76 80 76 75 72 68 67 64 60 58 57 58 56 54 56 55 55 60 62 48 20 16 33 39 25 16 25 32 34 38 36 33 36 24 341 291 264 267 291 295 274 276 300 322 323 305 284 249 223 216
277 297 281 235 257 258 223 200 239 258 253 265 262 232 218 231 249 242 215 161 343 302 171 156 148 160 179 164 140 136 129 119 115 106 90 75 75 77 72 74 75 71 67 64 59 55 53 53 52 52 54 53 51 56 57 47 33 20 22 32 32 25 29 36 35 31 30 30 34 32 22 353 305 292 302 298 274 259 260 264 274 286 292 293 278 254
260 288 282 261 263 261 221 126 45 257 233 252 325 259 213 209 235 245 213 141 43 20 100 142 146 158 170 155 134 130 121 110 108 110 106 90 81 83 75 68 71 74 72 68 61 55 50 49 49 50 54 53 48 52 55 46 35 28 22 23 32 37 35 35 34 31 27 28 31 26 23 22 9 351 321 291 278 271 254 231 226 232 239 247 261 269
253 238 257 265 262 265 240 120 212 245 222 78 50 44 51 58 23 359 46 85 99 84 96 131 146 156 152 121 108 109 112 109 104 103 103 90 65 70 79 75 69 67 70 70 65 57 50 46 45 44 49 53 46 43 50 43 33 32 27 21 30 40 38 36 36 34 27 26 26 18 12 17 14 5 357 320 286 280 269 247 235 227 223 226 234 241
298 271 258 249 249 264 253 209 221 228 114 98 76 56 46 50 60 94 86 49 85 113 120 128 138 145 140 126 121 125 126 119 110 104 104 103 81 57 58 65 67 63 61 67 67 58 47 42 41 38 45 54 47 40 46 42 31 31 29 23 29 36 36 35 34 32 30 27 21 12 4 3 0 355 360 354 316 298 287 262 246 239 234 239 245 243
297 313 297 252 226 241 243 222 205 184 167 148 112 69 55 81 67 350 214 189 156 145 137 129 135 148 151 147 139 142 146 129 117 111 109 115 117 101 66 52 60 63 58 61 64 56 45 36 33 30 40 52 46 38 48 48 35 29 27 25 30 34 34 33 29 25 25 25 19 10 4 1 357 351 350 348 333 314 301 280 264 258 253 256 264 260
267 279 311 299 251 240 249 237 205 208 217 167 122 100 74 67 53 15 303 180 165 157 147 148 158 160 168 177 150 135 163 176 133 112 95 95 100 98 84 56 49 51 51 55 55 47 38 30 24 20 29 44 39 30 43 52 41 30 23 21 25 30 32 30 25 20 17 15 14 7 3 6 6 359 352 346 338 325 312 301 287 273 262 260 263 263
259 255 269 276 258 246 254 250 223 210 225 103 109 106 90 73 68 43 233 194 167 153 150 162 176 169 172 199 153 135 191 226 156 120 99 83 66 64 63 52 44 36 36 46 45 32 24 24 19 11 19 33 27 17 31 44 40 32 22 16 17 22 28 27 20 15 11 7 6 2 1 6 7 3 1 360 356 349 330 309 295 279 264 257 258 261
241 241 233 239 244 240 240 244 242 114 113 123 116 105 96 81 75 218 210 173 138 127 116 154 187 171 140 51 54 154 218 251 127 120 112 89 63 47 37 40 41 29 25 34 33 20 14 23 19 5 11 21 14 9 21 27 28 28 17 9 11 13 17 18 9 5 4 360 359 3 2 4 5 2 2 3 4 2 350 327 308 297 284 273 269 268
224 225 226 233 237 230 229 238 236 88 107 133 123 95 77 66 250 215 182 93 87 101 78 23 310 155 134 100 46 202 151 105 98 110 98 65 51 32 14 20 26 21 18 21 21 16 14 20 14 0 3 11 4 4 14 14 18 22 9 0 5 4 4 5 358 354 354 351 354 1 358 357 360 0 1 2 2 359 353 344 332 318 305 292 284 281
232 226 227 235 244 242 239 245 223 128 122 128 115 90 53 293 228 135 112 61 65 93 90 35 15 70 138 146 150 142 80 86 78 50 27 27 20 5 6 14 14 11 8 6 12 19 16 11 7 358 357 0 358 0 5 5 9 11 357 352 356 352 351 351 346 344 344 343 347 351 346 344 345 346 350 356 360 359 353 345 339 332 324 315 304 297
238 245 239 230 242 250 240 241 241 152 131 131 126 99 32 353 121 117 114 78 59 74 94 61 30 26 64 149 164 176 358 41 39 21 10 5 348 345 6 15 7 1 358 356 3 11 9 1 358 355 349 348 353 357 357 356 357 354 344 344 345 341 341 338 334 333 333 336 342 341 335 331 331 335 337 334 341 352 348 339 334 329 324 324 323 314
222 238 259 245 245 259 246 239 249 151 136 128 124 91 77 80 92 113 113 89 67 77 114 84 36 47 58 247 252 289 278 3 23 343 309 321 332 339 1 9 2 355 353 353 358 3 2 353 346 344 341 343 349 351 347 345 342 337 336 340 339 335 331 325 322 322 322 327 333 332 329 326 319 319 321 319 324 332 326 320 320 317 315 319 323 316
218 219 300 301 283 297 298 130 132 159 145 116 81 88 98 103 104 84 77 102 144 194 157 173 201 156 152 227 254 296 276 266 315 302 280 306 331 336 351 355 353 352 348 349 355 357 353 345 339 338 339 343 344 341 339 339 334 330 333 335 333 328 323 320 322 325 324 324 323 320 323 327 323 315 309 313 318 310 301 299 291 288 301 311 310 304
223 201 308 284 270 276 255 189 167 169 159 147 131 109 106 119 128 127 160 188 169 241 293 358 17 42 36 259 204 216 248 267 301 297 293 304 306 316 334 339 344 350 347 346 351 350 344 337 336 337 337 338 339 337 334 333 329 327 328 327 326 324 325 328 330 326 320 316 314 314 317 319 319 318 316 312 304 293 288 289 282 272 274 285 289 289
217 208 212 235 247 245 220 186 178 185 182 176 171 146 133 143 138 130 167 165 89 40 14 32 27 24 27 29 120 215 292 317 299 287 282 276 283 304 326 336 343 347 344 343 343 342 340 336 333 333 332 331 333 332 330 328 327 325 325 325 325 325 326 327 324 318 314 310 308 310 311 310 310 311 309 301 292 287 281 280 285 284 275 272 283 295
209 206 215 221 227 239 243 203 175 193 203 204 200 168 154 164 169 165 171 154 112 87 52 45 35 18 19 89 137 153 266 267 265 271 275 281 299 316 321 327 335 336 334 337 337 337 337 332 327 327 326 325 327 327 326 325 322 321 323 324 325 324 323 320 316 312 311 308 305 303 301 300 300 298 297 294 292 293 290 284 286 289 286 286 298 319
76 212 259 251 236 243 254 254 234 218 212 212 221 226 216 188 182 180 174 165 156 152 155 146 110 100 289 234 148 178 236 267 283 292 295 294 297 303 309 316 324 328 329 331 332 333 331 326 324 323 321 320 322 322 321 320 318 319 321 321 322 322 320 317 314 311 307 303 301 299 297 296 294 293 296 301 302 300 294 287 288 293 293 292 292 298
295 269 297 287 253 258 313 334 316 261 229 220 224 236 255 272 241 211 187 181 184 175 165 176 191 191 182 158 185 225 229 231 251 265 272 280 291 305 315 317 319 324 327 326 327 330 327 323 321 318 315 316 318 317 317 317 317 317 318 317 319 319 317 317 315 311 308 304 300 299 300 302 302 304 307 306 301 300 297 291 288 289 287 284 283 285
39 308 347 312 264 278 335 9 14 9 337 10 19 343 286 251 237 230 213 198 194 184 182 195 202 199 193 193 196 202 213 226 244 268 281 288 302 309 310 314 319 323 325 326 327 325 321 317 315 314 315 318 319 317 317 316 314 315 314 313 314 314 313 315 315 311 308 305 302 301 302 300 299 302 304 300 296 294 293 290 287 284 280 278 280 282